Theta_e
277 278 272 274 275 274 273 276 275 277 270 277 278 274 271 269 270 270 270 270 271 271 273 274 275 275 276 276 277 277 276 276 276 277 277 277 277 277 277 277 277 277 277 277
274 271 268 270 274 273 274 275 273 272 272 279 273 270 270 271 270 270 270 270 271 271 273 273 275 275 276 276 276 277 276 276 277 277 277 277 277 277 277 277 277 278 277 277
278 273 274 274 272 272 274 275 275 273 283 276 275 274 275 273 271 271 271 271 271 272 272 274 276 277 276 276 277 277 276 277 277 277 277 277 277 277 276 276 277 276 276 276
276 276 277 281 272 275 275 276 275 277 277 278 278 276 275 274 274 272 271 271 272 273 274 275 276 277 277 277 277 276 276 276 276 276 276 276 276 276 276 276 276 276 276 276
274 277 283 280 272 274 275 283 279 277 278 277 274 275 278 275 274 274 272 272 271 270 271 275 274 276 276 276 276 275 275 275 275 276 275 275 275 275 276 276 276 276 277 276
275 274 278 287 279 279 279 283 281 280 278 274 275 279 285 275 274 271 271 270 270 271 273 274 274 276 275 275 275 274 274 274 275 275 275 275 275 275 276 276 275 276 276 277
274 276 282 284 280 281 281 287 280 282 281 276 278 285 284 276 274 273 271 269 271 271 273 273 273 275 274 274 273 274 275 275 275 275 274 275 275 275 275 275 275 274 274 274
276 275 276 281 279 282 289 280 281 283 281 279 283 274 274 273 272 272 270 270 272 272 273 274 274 275 274 274 274 274 274 274 273 273 274 274 273 273 274 274 273 273 273 274
279 282 285 282 285 285 282 285 281 284 282 283 280 274 274 274 273 272 272 272 273 274 273 274 274 274 273 274 273 272 272 270 271 272 273 274 274 273 273 274 274 273 274 274
279 286 283 285 284 284 282 283 284 285 283 283 280 278 276 276 275 274 274 273 273 273 272 272 273 273 274 274 272 269 270 270 271 271 272 272 274 274 275 274 274 274 274 274
281 284 285 287 286 287 284 281 282 283 284 283 282 279 277 276 275 274 274 273 273 272 272 272 272 272 272 272 270 270 271 271 272 273 271 273 273 274 274 275 275 275 275 275
283 288 288 288 287 287 285 283 282 282 281 282 283 280 278 276 275 274 273 273 272 272 272 272 272 271 271 270 269 270 271 272 273 273 273 273 274 273 275 275 275 275 275 274
286 287 287 287 286 285 285 285 284 282 282 281 282 280 277 276 275 274 273 272 271 271 271 272 271 270 270 269 268 268 272 273 273 272 274 273 273 273 273 275 277 277 278 277
287 284 284 286 286 284 283 283 282 280 281 281 281 279 277 276 275 273 272 273 273 272 270 270 270 269 270 270 269 268 270 270 274 274 274 274 274 274 273 273 273 274 277 277
286 285 287 282 280 279 279 278 276 278 278 277 278 277 275 274 273 273 273 272 271 269 268 268 268 269 269 269 268 268 270 271 272 274 274 273 274 273 273 272 271 272 273 274
281 279 280 280 282 279 277 276 278 279 278 278 276 275 276 276 274 273 272 270 270 269 269 268 268 271 268 268 268 269 269 269 271 272 273 271 271 271 271 270 270 270 270 271
280 280 276 276 278 280 278 279 279 280 278 277 277 276 274 273 270 271 270 270 271 272 271 270 270 270 268 268 268 270 270 271 269 270 271 271 270 270 270 270 270 270 270 271
285 284 282 282 282 280 279 278 278 278 278 278 276 274 272 272 274 274 272 269 269 268 272 273 271 270 268 268 268 270 271 271 270 269 270 270 270 270 270 270 270 269 270 271
273 274 276 275 275 274 273 274 275 275 274 275 273 274 275 274 275 275 272 269 268 268 271 271 273 270 270 269 268 270 271 271 271 270 270 270 270 270 269 269 269 270 270 270
270 269 269 269 269 268 270 272 271 271 272 273 272 272 273 273 273 272 271 271 273 275 275 274 271 272 271 270 271 270 270 271 271 271 270 269 270 270 270 269 269 270 270 269
270 268 267 266 267 267 267 268 268 271 272 272 273 274 273 275 272 272 270 272 276 273 273 270 271 272 272 271 270 270 270 270 271 271 271 271 270 270 270 270 270 269 269 269
269 268 267 266 265 266 267 266 268 269 271 270 270 271 272 273 271 271 273 275 278 270 272 273 272 271 273 271 270 270 270 270 270 271 270 271 270 270 270 270 269 269 270 270
269 268 268 267 266 267 267 268 268 270 270 270 270 272 274 276 276 273 274 276 274 272 273 274 272 270 270 270 271 270 271 270 270 270 270 271 270 270 270 270 270 270 270 269
268 268 268 269 269 271 270 270 270 269 269 269 268 268 272 274 274 274 274 271 270 271 272 273 272 272 270 271 271 271 270 270 270 270 270 270 270 270 270 270 269 270 269 269
267 267 268 269 269 269 270 270 270 270 269 269 269 269 270 271 272 271 272 272 272 272 273 271 272 271 272 271 270 270 270 270 270 270 270 269 269 269 269 269 268 268 268 268
266 266 266 266 266 268 270 271 268 269 270 268 267 268 269 270 270 270 270 269 270 270 270 270 270 271 271 271 270 269 269 269 269 268 268 268 268 267 267 267 267 267 268 268
266 267 268 267 267 267 267 268 267 266 267 267 266 267 267 268 268 268 268 268 268 268 268 268 268 268 268 268 268 268 268 268 267 266 266 266 267 267 267 267 268 268 268 268
Wind_Speed
8 6 3 7 5 13 14 5 7 1 6 15 11 6 5 5 4 4 4 3 3 5 5 6 6 6 7 8 9 9 10 10 10 10 10 11 12 12 13 14 14 13 14 14
6 3 3 6 10 11 14 11 15 14 19 1 2 2 4 4 3 3 3 3 1 2 4 5 5 5 7 7 9 8 9 10 9 11 11 13 13 12 13 14 13 13 13 12
5 1 6 7 8 14 8 9 6 7 1 3 3 5 4 4 4 4 4 3 1 1 2 3 5 6 7 7 8 9 9 10 9 9 11 11 10 11 12 11 12 12 11 11
6 4 4 1 3 3 7 7 18 5 4 4 1 2 3 4 4 4 4 4 3 2 4 5 6 6 7 8 9 9 9 10 9 9 9 9 9 9 9 9 10 9 10 10
4 5 8 3 6 8 7 6 19 14 6 5 3 2 5 7 7 5 5 2 2 1 1 3 3 4 6 7 7 7 7 7 7 7 8 7 7 8 7 7 8 8 7 9
1 4 4 1 4 5 3 5 7 13 11 10 8 3 2 11 10 8 6 5 5 3 3 3 2 4 6 5 5 6 6 5 6 6 6 6 6 7 7 7 8 7 9 8
8 5 10 2 8 8 1 5 5 13 12 14 9 1 4 13 10 8 8 7 6 5 4 4 3 2 5 4 5 4 4 4 5 5 5 5 6 6 5 6 7 6 6 5
5 6 9 7 7 6 3 3 5 9 10 13 4 5 7 10 10 11 10 10 9 7 6 5 5 5 5 4 5 4 4 4 4 3 3 4 4 4 3 4 4 4 4 4
9 7 1 10 2 3 2 2 5 10 9 11 7 8 13 12 13 12 13 11 10 9 8 7 6 5 6 5 5 4 4 4 4 3 3 3 3 3 3 2 3 3 2 2
3 3 12 12 11 9 5 4 4 9 13 14 12 10 13 12 13 12 11 11 9 9 8 8 7 7 5 6 5 3 3 3 3 3 3 2 2 2 2 2 3 3 3 3
8 15 12 14 13 12 13 7 6 8 13 16 13 13 13 11 12 11 11 10 9 9 9 9 8 7 6 5 6 6 4 3 4 3 3 3 3 3 3 2 3 3 3 2
9 7 3 3 1 5 11 14 14 11 11 13 15 13 13 11 11 11 12 12 11 10 9 8 8 7 7 6 7 6 6 5 5 5 5 5 4 4 10 9 9 9 7 5
16 0 4 4 3 4 8 10 11 13 12 15 14 12 14 11 12 11 10 11 12 14 11 8 8 9 8 8 8 8 7 6 5 5 5 6 6 5 4 7 13 14 14 15
12 2 11 10 9 5 5 2 4 5 7 9 11 8 10 11 12 14 16 14 11 8 7 8 8 10 8 9 9 9 8 6 6 6 6 5 5 4 4 5 5 5 13 15
9 13 11 2 1 2 2 4 5 8 8 6 8 12 10 11 12 14 10 10 9 8 8 9 10 11 8 9 10 10 9 7 6 5 5 5 5 5 5 5 6 6 4 9
2 1 3 8 7 5 6 6 7 9 9 9 10 12 13 11 8 8 10 12 14 15 16 14 14 12 11 12 12 9 9 10 8 7 6 6 7 7 7 7 7 7 7 7
2 5 4 6 10 11 13 8 9 6 7 10 12 8 9 8 4 6 10 11 12 9 11 14 15 10 11 13 13 9 8 8 12 7 8 8 8 8 8 8 8 8 8 7
8 2 2 1 2 5 8 9 7 6 8 8 6 8 8 11 15 11 8 8 7 7 9 11 10 11 12 13 13 10 9 8 8 10 8 9 9 8 8 9 9 9 8 8
3 5 3 4 2 2 3 2 4 4 4 6 7 11 11 10 9 6 9 10 10 11 14 11 12 13 13 13 12 9 10 10 10 9 9 10 9 10 9 10 10 10 9 9
3 2 3 5 3 3 5 3 2 3 3 5 4 5 7 7 7 7 8 12 13 7 5 9 13 12 11 11 16 9 10 11 11 10 9 10 11 10 10 11 11 10 9 9
5 4 5 5 5 3 3 4 3 5 3 5 8 7 6 4 7 6 7 7 5 7 6 8 8 7 8 9 11 10 10 10 11 11 11 10 9 9 9 9 9 9 9 10
5 5 6 5 4 5 2 2 3 3 2 2 2 3 4 3 3 4 4 4 2 6 5 5 6 9 7 12 8 8 9 9 8 8 8 8 8 8 8 8 9 9 9 9
4 5 4 3 3 3 3 5 3 2 2 3 2 2 1 2 1 2 2 1 3 3 2 2 2 4 6 5 5 5 6 7 8 8 8 7 8 8 8 8 8 8 8 8
5 6 5 3 2 6 8 7 7 7 6 7 6 4 4 3 4 3 2 2 4 3 0 1 1 4 6 4 4 5 5 5 6 6 6 7 6 6 6 7 7 7 7 8
7 7 7 7 8 6 6 5 5 5 6 8 8 7 8 6 6 4 5 5 7 5 5 6 4 3 0 1 1 2 3 3 3 4 4 5 5 6 5 5 6 6 6 6
8 6 6 8 6 5 4 4 5 5 4 5 7 6 7 6 6 6 6 7 7 7 6 6 6 4 4 3 2 2 3 4 3 3 4 4 4 4 4 5 5 5 5 5
6 6 4 5 6 6 6 6 5 6 5 5 7 7 7 7 8 8 9 8 7 7 7 6 6 7 6 6 5 4 3 3 3 3 3 4 3 3 4 4 4 4 4 4
Wind_Direction
273 276 225 259 220 195 207 246 234 24 263 297 317 303 321 315 315 329 348 345 353 351 1 3 18 21 36 35 39 44 53 52 53 57 58 62 63 63 66 65 66 67 69 67
275 101 210 270 232 210 225 250 260 277 285 317 57 295 267 272 262 243 218 228 261 353 7 14 22 42 51 48 48 47 57 57 55 59 60 60 62 65 69 68 66 69 69 71
275 245 296 265 214 181 186 205 200 205 203 162 239 246 262 233 230 242 229 221 163 84 30 45 34 60 61 57 60 57 63 67 64 66 66 66 73 72 70 75 76 68 69 73
290 304 256 13 53 167 218 222 214 264 225 185 200 146 208 196 211 209 215 205 198 70 38 33 50 55 68 67 65 59 60 66 66 67 68 65 63 67 65 67 70 75 71 71
285 288 301 194 187 172 185 283 202 200 172 182 168 245 234 191 190 192 190 177 171 179 230 56 61 85 87 80 84 78 64 63 64 71 80 81 79 79 74 78 75 72 72 77
225 270 268 306 153 181 180 282 165 171 169 162 174 209 195 159 171 176 178 189 192 186 176 122 57 82 94 85 85 78 77 71 67 71 80 82 71 69 69 73 80 78 73 60
220 272 280 135 147 168 228 252 154 179 167 160 193 321 131 139 161 172 175 184 189 189 174 142 129 109 111 109 92 90 91 92 91 92 84 85 82 80 87 93 96 94 96 84
185 230 276 139 124 200 204 131 154 172 175 184 165 122 145 151 154 163 173 179 184 180 177 166 160 159 146 148 128 131 120 106 92 69 87 93 93 99 93 107 99 97 106 103
215 226 135 200 301 293 329 165 181 176 178 184 170 185 170 173 174 180 181 182 184 184 170 173 176 189 177 161 162 154 144 136 140 126 122 133 141 142 135 129 128 118 132 154
320 235 243 228 244 238 213 242 180 192 180 182 184 180 181 170 176 182 186 186 179 180 183 181 183 194 209 160 163 139 166 175 163 174 161 180 185 191 178 178 175 172 191 193
257 276 271 246 225 236 213 209 236 202 185 188 180 182 181 178 181 181 181 185 184 191 192 192 178 192 190 167 154 175 179 182 203 210 210 202 240 227 232 245 235 214 216 218
243 230 239 291 185 227 208 211 206 187 187 197 189 180 176 183 184 183 183 180 186 195 197 193 185 190 180 170 170 179 193 198 204 204 199 215 215 223 230 236 217 226 229 220
246 150 251 289 259 204 221 231 210 199 193 188 193 179 182 177 183 179 180 187 195 197 195 186 190 198 184 176 175 192 206 199 208 219 216 212 213 221 222 207 234 237 238 239
245 100 279 237 254 184 189 234 176 186 191 186 186 183 177 180 169 183 194 194 188 187 188 190 195 211 187 177 184 199 211 226 209 205 220 219 216 222 231 234 230 226 233 240
230 203 232 105 57 176 134 137 166 205 193 190 179 183 183 183 190 198 185 170 167 170 188 191 203 215 170 175 191 202 207 220 212 226 214 219 221 227 231 233 241 247 242 236
113 55 242 235 241 201 191 201 212 216 200 199 196 197 195 199 200 185 179 170 172 198 203 202 211 205 175 180 196 205 213 219 209 207 211 211 215 217 220 225 233 236 234 236
193 248 198 248 229 228 219 214 215 213 205 207 210 189 176 178 139 175 193 192 206 211 202 200 216 190 180 188 194 205 208 212 212 220 220 214 214 220 224 228 233 235 240 228
240 219 209 231 237 229 232 223 216 203 206 213 175 158 171 182 211 207 191 170 195 226 219 209 198 184 188 191 195 203 206 208 201 215 220 225 227 226 228 232 235 242 249 243
324 292 292 284 314 309 300 263 227 221 187 173 168 198 201 208 205 191 160 173 196 219 234 207 191 185 197 195 191 201 207 212 215 214 215 224 230 231 232 236 243 246 248 248
315 283 290 283 290 226 275 270 264 269 234 182 178 180 196 201 182 169 169 205 214 214 164 175 189 205 205 193 192 202 213 218 220 225 223 221 227 231 233 234 242 246 247 248
319 327 313 294 290 290 251 267 284 261 250 207 195 205 210 185 179 178 193 230 230 190 178 159 178 198 199 195 193 209 215 216 220 223 225 227 235 237 240 240 241 238 242 246
337 333 322 315 318 315 319 306 261 250 254 190 149 132 147 177 168 201 241 246 57 149 181 202 202 201 199 186 195 211 220 226 230 232 234 237 240 244 243 243 246 245 249 251
352 343 315 336 1 26 33 35 4 344 99 84 120 144 143 38 134 196 293 34 248 193 218 221 246 188 189 177 198 213 224 224 227 232 239 236 237 239 245 249 252 257 257 257
19 11 6 22 36 61 58 39 47 50 64 70 62 40 49 71 90 39 33 52 44 56 128 14 197 192 172 193 214 224 236 241 242 238 241 248 253 254 253 256 258 261 264 268
36 26 21 34 55 59 65 70 71 57 56 60 50 46 42 35 46 34 30 37 32 31 43 35 31 8 174 277 294 279 269 269 273 272 265 264 267 265 266 271 270 271 273 270
44 39 37 35 34 27 41 62 69 43 60 66 51 41 45 41 44 47 48 39 38 36 40 33 27 20 25 32 9 1 338 329 320 303 302 300 295 287 283 280 277 274 272 275
53 31 41 49 39 44 41 50 70 61 44 59 69 41 40 41 41 46 42 39 37 35 34 30 28 26 20 16 21 19 13 1 1 331 313 297 292 286 281 282 287 295 297 297